Location: Aurora Center
(43.5271°N, 98.5894°W)
Time: 07:34:37
(UTC-05:00)

Vanguard 2 - All Passes

Search period start: 19 July 2024 00:00
Search period end: 29 July 2024 00:00
Orbit: 552 x 2913 km, 32.9° (Epoch: 19 July)

Date Brightness Start Highest point End Pass type
(mag) Time Alt. Az. Time Alt. Az. Time Alt. Az.
19 Jul - 00:28:22 10° SW 00:31:47 23° SSE 00:36:05 10° ESE night (unlit)
19 Jul - 02:34:45 10° WSW 02:39:15 28° S 02:45:42 10° SE visible
19 Jul - 04:42:43 10° WSW 04:47:30 18° SSW 04:53:52 10° SSE visible
19 Jul - 22:37:45 10° S 22:38:43 11° SSE 22:39:42 10° SE visible
20 Jul - 00:42:13 10° SW 00:45:44 24° S 00:50:12 10° ESE night (unlit)
20 Jul - 02:48:59 10° WSW 02:53:18 24° S 02:59:19 10° SE visible
20 Jul - 04:57:59 10° SW 05:01:36 14° SSW 05:06:00 10° S visible
20 Jul - 22:50:30 10° SSW 22:52:36 14° SSE 22:54:48 10° SE visible
21 Jul - 00:56:12 10° SW 00:59:42 24° S 01:04:11 10° SE night (unlit)
21 Jul - 03:03:22 10° WSW 03:07:22 20° S 03:12:41 10° SSE visible
21 Jul - 23:03:56 10° SSW 23:06:30 17° SSE 23:09:15 10° SE visible
22 Jul - 01:10:16 10° SW 01:13:42 22° S 01:18:03 10° SE night (unlit)
22 Jul - 03:18:02 10° SW 03:21:25 16° SSW 03:25:40 10° SSE visible
22 Jul - 23:17:37 10° SW 23:20:26 19° S 23:23:27 10° SE visible
23 Jul - 01:24:26 10° SW 01:27:42 20° S 01:31:45 10° SE night (unlit)
23 Jul - 03:33:24 10° SW 03:35:28 12° SSW 03:37:48 10° S visible
23 Jul - 21:25:49 10° S 21:27:13 11° SSE 21:28:34 10° SE daylight
23 Jul - 23:31:27 10° SW 23:34:23 20° S 23:37:32 10° SE visible
24 Jul - 01:38:46 10° SW 01:41:41 17° S 01:45:12 10° SSE night (unlit)
24 Jul - 21:38:46 10° SSW 21:41:10 14° SSE 21:43:24 10° SE visible
24 Jul - 23:45:26 10° SW 23:48:20 19° S 23:51:28 10° SE visible
25 Jul - 01:53:26 10° SW 01:55:42 13° SSW 01:58:16 10° SSE night (unlit)
25 Jul - 21:52:13 10° SW 21:55:06 17° S 21:57:46 10° SE visible
25 Jul - 23:59:32 10° SW 00:02:17 18° S 00:05:14 10° SE visible
26 Jul - 19:59:34 10° S 20:01:40 12° SSE 20:03:33 10° SE daylight
26 Jul - 22:05:56 10° SW 22:09:03 19° S 22:11:55 10° SE visible
27 Jul - 00:13:47 10° SW 00:16:13 16° S 00:18:48 10° SSE visible
27 Jul - 20:12:21 10° SSW 20:15:39 16° S 20:18:25 10° SE daylight
27 Jul - 22:19:47 10° SW 22:23:00 20° S 22:25:56 10° SE visible
28 Jul - 00:28:22 10° SW 00:30:09 13° SSW 00:32:01 10° SSE visible
28 Jul - 18:20:51 10° S 18:21:48 10° SSE 18:22:43 10° SSE daylight
28 Jul - 20:25:40 10° SW 20:29:38 19° S 20:32:50 10° SE daylight
28 Jul - 22:33:47 10° SW 22:36:55 19° S 22:39:48 10° SE visible
